FW3814 Weather Reports


time (UTC)temp
F
wind
direction
speed
knots
gust
knots
rain 1hr
in
rain 24hr
in
rain mn
in
humidity
%
barometer
mb
20260903214003 75 0 0.0 0.0 0.00 0.00 0.00 53 1018.8
20260903213503 75 0 0.0 0.0 0.00 0.00 0.00 53 1018.7
20260903213024 75 5 0.9 3.5 0.00 0.00 0.00 53 1018.7
20260903212503 75 2 0.9 3.5 0.00 0.00 0.00 53 1018.6
20260903212003 75 3 1.7 3.5 0.00 0.00 0.00 53 1018.7
20260903211503 75 11 3.5 3.5 0.00 0.00 0.00 53 1018.7
20260903211003 75 15 3.5 4.3 0.00 0.00 0.00 53 1018.8
20260903210524 75 13 1.7 4.3 0.00 0.00 0.00 52 1018.7
20260903210003 75 9 0.9 3.5 0.00 0.00 0.00 52 1018.8
20260903205503 76 0 0.0 0.0 0.00 0.00 0.00 52 1018.7
20260903205003 76 0 0.0 0.0 0.00 0.00 0.00 52 1018.7
20260903204503 76 0 0.0 0.0 0.00 0.00 0.00 52 1018.7
20260903204003 76 0 0.0 0.0 0.00 0.00 0.00 52 1018.6
20260903203503 76 0 0.0 0.0 0.00 0.00 0.00 52 1018.6
20260903203004 76 0 0.0 0.0 0.00 0.00 0.00 52 1018.7
20260903202524 76 0 0.0 0.0 0.00 0.00 0.00 51 1018.5
20260903202003 76 0 0.0 0.0 0.00 0.00 0.00 51 1018.6
20260903201503 76 0 0.0 0.0 0.00 0.00 0.00 51 1018.6
20260903201024 76 0 0.0 0.0 0.00 0.00 0.00 51 1018.5
20260903200503 76 0 0.0 0.0 0.00 0.00 0.00 51 1018.5
20260903200003 76 14 0.9 1.7 0.00 0.00 0.00 51 1018.5
20260903195503 76 14 0.9 1.7 0.00 0.00 0.00 52 1018.4
20260903195003 76 0 0.0 0.0 0.00 0.00 0.00 52 1018.4
20260903194503 77 0 0.0 0.0 0.00 0.00 0.00 51 1018.6
20260903194024 77 0 0.0 0.0 0.00 0.00 0.00 51 1018.5
20260903193503 78 0 0.0 0.0 0.00 0.00 0.00 50 1018.4
20260903193024 78 0 0.0 0.0 0.00 0.00 0.00 49 1018.5
20260903192503 78 0 0.0 0.0 0.00 0.00 0.00 48 1018.4
20260903192003 78 0 0.0 0.0 0.00 0.00 0.00 48 1018.5
20260903191503 78 0 0.0 0.0 0.00 0.00 0.00 48 1018.4
20260903191003 78 0 0.0 0.0 0.00 0.00 0.00 48 1018.4
20260903190524 78 0 0.0 0.0 0.00 0.00 0.00 48 1018.1
20260903190003 78 0 0.0 0.0 0.00 0.00 0.00 47 1018.0
20260903185524 78 0 0.0 0.0 0.00 0.00 0.00 47 1018.0
20260903185024 78 0 0.0 0.0 0.00 0.00 0.00 46 1018.0
20260903184503 79 0 0.0 0.0 0.00 0.00 0.00 46 1017.9
20260903184004 79 0 0.0 0.0 0.00 0.00 0.00 46 1018.0
20260903183524 79 0 0.0 0.0 0.00 0.00 0.00 46 1017.8
20260903183003 79 0 0.0 0.0 0.00 0.00 0.00 46 1017.9
20260903182503 79 0 0.0 0.0 0.00 0.00 0.00 46 1017.7
20260903182003 79 0 0.0 0.0 0.00 0.00 0.00 45 1017.7
20260903181503 80 0 0.0 0.0 0.00 0.00 0.00 45 1017.7
20260903181003 80 0 0.0 0.0 0.00 0.00 0.00 45 1017.6
20260903180524 80 0 0.0 0.0 0.00 0.00 0.00 44 1017.7
20260903180003 80 0 0.0 0.0 0.00 0.00 0.00 44 1017.6
20260903175503 81 0 0.0 0.0 0.00 0.00 0.00 44 1017.7
20260903175003 81 0 0.0 0.0 0.00 0.00 0.00 44 1017.4
20260903174524 81 0 0.0 0.0 0.00 0.00 0.00 43 1017.6
20260903174003 82 0 0.0 0.0 0.00 0.00 0.00 40 1017.4
20260903173503 82 0 0.0 0.0 0.00 0.00 0.00 40 1017.5
20260903173003 83 0 0.0 0.0 0.00 0.00 0.00 40 1017.5
20260903172503 83 0 0.0 0.0 0.00 0.00 0.00 40 1017.4
20260903172024 83 0 0.0 0.0 0.00 0.00 0.00 39 1017.3
20260903171524 84 0 0.0 0.0 0.00 0.00 0.00 39 1017.5
20260903171003 84 0 0.0 0.0 0.00 0.00 0.00 40 1017.5
20260903170503 85 0 0.0 0.0 0.00 0.00 0.00 38 1017.5
20260903170003 85 0 0.0 0.0 0.00 0.00 0.00 38 1017.5
20260903165503 85 0 0.0 0.0 0.00 0.00 0.00 38 1017.6
20260903165003 86 0 0.0 0.0 0.00 0.00 0.00 38 1017.4
20260903164503 86 0 0.0 0.0 0.00 0.00 0.00 38 1017.6
20260903164024 87 0 0.0 0.0 0.00 0.00 0.00 38 1017.5
20260903163503 87 0 0.0 0.0 0.00 0.00 0.00 37 1017.4
20260903163003 88 18 0.0 2.6 0.00 0.00 0.00 37 1017.4
20260903162503 88 18 0.0 2.6 0.00 0.00 0.00 36 1017.4
20260903162024 88 0 0.0 0.0 0.00 0.00 0.00 36 1017.4
20260903161503 88 315 0.0 0.9 0.00 0.00 0.00 36 1017.4
20260903161024 88 315 0.0 0.9 0.00 0.00 0.00 36 1017.4
20260903160503 88 247 0.0 0.9 0.00 0.00 0.00 36 1017.4
20260903160024 88 266 0.0 0.9 0.00 0.00 0.00 36 1017.5
20260903155503 89 341 0.0 0.9 0.00 0.00 0.00 36 1017.3
20260903155003 89 312 0.0 0.9 0.00 0.00 0.00 36 1017.4
20260903154503 89 291 0.0 0.9 0.00 0.00 0.00 36 1017.5
20260903154003 89 254 0.0 1.7 0.00 0.00 0.00 36 1017.5
20260903153503 89 275 0.0 1.7 0.00 0.00 0.00 35 1017.4
20260903153003 89 315 0.0 0.9 0.00 0.00 0.00 35 1017.6
20260903152503 89 0 0.0 0.0 0.00 0.00 0.00 35 1017.4
20260903152024 89 0 0.0 0.0 0.00 0.00 0.00 35 1017.6
20260903151503 89 0 0.0 0.0 0.00 0.00 0.00 34 1017.6
20260903151003 89 0 0.0 0.0 0.00 0.00 0.00 35 1017.6
20260903150503 89 315 0.0 0.9 0.00 0.00 0.00 35 1017.7
20260903150003 89 315 0.0 1.7 0.00 0.00 0.00 35 1017.8
20260903145524 89 318 0.9 3.5 0.00 0.00 0.00 35 1017.7
20260903145003 89 322 1.7 3.5 0.00 0.00 0.00 34 1017.9
20260903144503 89 293 1.7 7.0 0.00 0.00 0.00 34 1017.7
20260903144003 89 301 2.6 7.0 0.00 0.00 0.00 34 1017.8
20260903143524 89 310 2.6 7.0 0.00 0.00 0.00 34 1017.9
20260903143003 89 312 1.7 5.2 0.00 0.00 0.00 33 1017.8
20260903142503 89 289 3.5 6.1 0.00 0.00 0.00 32 1017.7
20260903142004 89 273 2.6 6.1 0.00 0.00 0.00 31 1017.9
20260903141503 89 251 1.7 5.2 0.00 0.00 0.00 31 1017.8
20260903141003 89 249 4.3 5.2 0.00 0.00 0.00 31 1018.0
20260903140503 88 252 2.6 5.2 0.00 0.00 0.00 33 1018.1
20260903140024 88 268 0.9 5.2 0.00 0.00 0.00 33 1018.0
20260903135503 88 293 1.7 3.5 0.00 0.00 0.00 33 1018.1
20260903135003 88 308 0.9 3.5 0.00 0.00 0.00 33 1018.3
20260903134503 88 262 0.0 0.9 0.00 0.00 0.00 34 1018.3
20260903134003 87 315 0.0 0.9 0.00 0.00 0.00 34 1018.3
20260903133503 87 315 0.0 0.9 0.00 0.00 0.00 34 1018.1
20260903133003 87 0 0.0 0.0 0.00 0.00 0.00 34 1018.3
20260903132503 87 0 0.0 0.0 0.00 0.00 0.00 32 1018.3
20260903132005 88 0 0.0 0.0 0.00 0.00 0.00 32 1018.4
20260903131505 89 315 0.0 0.9 0.00 0.00 0.00 32 1018.3
20260903131005 89 305 0.0 2.6 0.00 0.00 0.00 33 1018.3
20260903130505 88 304 1.7 3.5 0.00 0.00 0.00 33 1018.4
20260903130005 88 305 1.7 3.5 0.00 0.00 0.00 33 1018.6
20260903125505 88 315 0.9 2.6 0.00 0.00 0.00 33 1018.6
20260903125005 88 315 0.0 3.5 0.00 0.00 0.00 35 1018.8
20260903124505 88 318 0.9 3.5 0.00 0.00 0.00 34 1018.7
20260903124005 88 292 0.9 3.5 0.00 0.00 0.00 35 1018.9
20260903123505 88 287 0.9 3.5 0.00 0.00 0.00 35 1018.8
20260903123005 88 283 0.0 0.9 0.00 0.00 0.00 36 1019.0
20260903122505 87 263 1.7 4.3 0.00 0.00 0.00 36 1018.8
20260903122005 87 271 1.7 4.3 0.00 0.00 0.00 36 1019.0
20260903121505 87 324 0.0 2.6 0.00 0.00 0.00 36 1019.0
20260903121005 87 0 0.0 0.0 0.00 0.00 0.00 36 1018.9
20260903120505 86 2 0.0 1.7 0.00 0.00 0.00 37 1019.0
20260903120005 86 11 0.9 2.6 0.00 0.00 0.00 37 1019.1
20260903115505 87 10 0.9 3.5 0.00 0.00 0.00 37 1019.0
20260903115005 86 360 0.9 3.5 0.00 0.00 0.00 38 1019.0
20260903114505 86 309 0.9 3.5 0.00 0.00 0.00 37 1019.1
20260903114005 86 303 0.9 2.6 0.00 0.00 0.00 37 1019.2
20260903113505 86 8 0.0 0.9 0.00 0.00 0.00 37 1019.1
20260903113005 86 360 0.0 0.9 0.00 0.00 0.00 37 1019.1
20260903112505 86 295 0.0 2.6 0.00 0.00 0.00 37 1019.2
20260903112026 86 278 0.9 2.6 0.00 0.00 0.00 38 1019.3
20260903111526 85 292 1.7 4.3 0.00 0.00 0.00 36 1019.1
20260903111005 86 303 0.9 4.3 0.00 0.00 0.00 36 1019.1
20260903110505 85 0 0.0 0.0 0.00 0.00 0.00 37 1019.2
20260903110005 85 0 0.0 0.0 0.00 0.00 0.00 37 1019.3
20260903105505 85 0 0.0 0.0 0.00 0.00 0.00 37 1019.3
20260903105005 85 0 0.0 0.0 0.00 0.00 0.00 38 1019.3
20260903104505 85 0 0.0 0.0 0.00 0.00 0.00 37 1019.4
20260903104005 85 0 0.0 0.0 0.00 0.00 0.00 38 1019.7
20260903103505 84 353 0.0 1.7 0.00 0.00 0.00 38 1019.5
20260903103005 84 353 0.0 2.6 0.00 0.00 0.00 37 1019.7
20260903102505 84 16 0.9 3.5 0.00 0.00 0.00 38 1019.8
20260903102005 83 17 2.6 4.3 0.00 0.00 0.00 38 1019.6
20260903101505 83 16 1.7 4.3 0.00 0.00 0.00 39 1019.8
20260903101005 83 2 2.6 3.5 0.00 0.00 0.00 40 1019.9
20260903100526 83 356 2.6 3.5 0.00 0.00 0.00 39 1020.0
20260903100005 83 358 1.7 4.3 0.00 0.00 0.00 39 1020.0
20260903095505 83 12 0.9 4.3 0.00 0.00 0.00 40 1020.1
20260903095005 83 306 0.0 1.7 0.00 0.00 0.00 40 1020.1
20260903094526 83 306 0.0 1.7 0.00 0.00 0.00 39 1019.8
20260903094026 83 247 0.0 0.9 0.00 0.00 0.00 40 1019.8
20260903093505 83 0 0.0 0.0 0.00 0.00 0.00 40 1019.9
20260903093005 82 360 0.0 1.7 0.00 0.00 0.00 40 1019.8
20260903092505 82 360 0.0 1.7 0.00 0.00 0.00 41 1019.8
20260903092005 82 0 0.0 0.0 0.00 0.00 0.00 42 1019.9
20260903091505 82 360 0.0 1.7 0.00 0.00 0.00 42 1019.9
20260903091005 82 360 0.0 1.7 0.00 0.00 0.00 43 1020.1
20260903090526 81 0 0.0 0.0 0.00 0.00 0.00 48 1020.1
20260903090026 81 0 0.0 0.0 0.00 0.00 0.00 48 1020.0
20260903085526 81 11 0.0 1.7 0.00 0.00 0.00 49 1019.9
20260903085005 80 13 0.9 1.7 0.00 0.00 0.00 48 1020.0
20260903084505 80 11 0.9 1.7 0.00 0.00 0.00 48 1020.0
20260903084005 80 360 0.0 1.7 0.00 0.00 0.00 49 1020.1
20260903083505 80 360 0.0 0.9 0.00 0.00 0.00 49 1019.8
20260903083005 79 342 0.9 2.6 0.00 0.00 0.00 50 1019.8
20260903082526 79 352 0.9 3.5 0.00 0.00 0.00 50 1019.6
20260903082026 79 1 1.7 3.5 0.00 0.00 0.00 50 1019.9
20260903081505 78 9 2.6 4.3 0.00 0.00 0.00 50 1019.9
20260903081005 78 19 2.6 4.3 0.00 0.00 0.00 50 1019.8
20260903080505 78 16 3.5 5.2 0.00 0.00 0.00 51 1020.0
20260903080026 78 8 3.5 5.2 0.00 0.00 0.00 51 1019.8
20260903075505 78 3 2.6 5.2 0.00 0.00 0.00 51 1019.9
20260903075005 78 13 1.7 3.5 0.00 0.00 0.00 51 1019.9
20260903074505 77 15 0.9 3.5 0.00 0.00 0.00 51 1019.9
20260903074005 77 360 0.0 1.7 0.00 0.00 0.00 52 1019.5
20260903073505 77 0 0.0 0.0 0.00 0.00 0.00 52 1019.4
20260903073005 76 315 0.0 1.7 0.00 0.00 0.00 52 1019.5
20260903072505 76 352 0.9 3.5 0.00 0.00 0.00 52 1019.4
20260903072005 75 354 1.7 3.5 0.00 0.00 0.00 52 1019.6
20260903071505 75 355 0.9 3.5 0.00 0.00 0.00 52 1019.5
20260903071026 75 343 0.9 3.5 0.00 0.00 0.00 53 1019.4
20260903070526 74 342 0.9 1.7 0.00 0.00 0.00 53 1019.5
20260903070005 74 5 0.9 3.5 0.00 0.00 0.00 53 1019.5
20260903065505 74 12 2.6 5.2 0.00 0.00 0.00 53 1019.4
20260903065005 73 15 3.5 5.2 0.00 0.00 0.00 53 1019.4
20260903064505 73 17 3.5 5.2 0.00 0.00 0.00 53 1019.4
20260903064005 73 15 3.5 3.5 0.00 0.00 0.00 54 1019.4
20260903063505 72 10 2.6 3.5 0.00 0.00 0.00 55 1019.4
20260903063026 72 2 2.6 3.5 0.00 0.00 0.00 60 1019.4
20260903062505 72 354 1.7 2.6 0.00 0.00 0.00 60 1019.4
20260903062005 72 355 1.7 2.6 0.00 0.00 0.00 60 1019.5
20260903061505 71 2 0.9 4.3 0.00 0.00 0.00 60 1019.4
20260903061005 71 357 1.7 4.3 0.00 0.00 0.00 60 1019.5
20260903060526 71 351 2.6 4.3 0.00 0.00 0.00 60 1019.3
20260903060005 71 354 2.6 4.3 0.00 0.00 0.00 60 1019.4
20260903055505 71 9 1.7 3.5 0.00 0.00 0.00 60 1019.1
20260903055026 71 4 0.9 3.5 0.00 0.00 0.00 59 1019.0
20260903054505 71 0 0.0 0.0 0.00 0.00 0.00 59 1019.0
20260903054005 71 0 0.0 0.0 0.00 0.00 0.00 59 1019.0
20260903053505 71 0 0.0 0.0 0.00 0.00 0.00 60 1019.0
20260903053005 71 29 1.7 5.2 0.00 0.00 0.00 60 1019.0
20260903052505 70 28 4.3 7.0 0.00 0.00 0.00 60 1018.9
20260903052005 70 24 6.1 7.0 0.00 0.00 0.00 60 1018.7
20260903051526 70 17 4.3 7.0 0.00 0.00 0.00 60 1018.9
20260903051005 69 12 2.6 6.1 0.00 0.00 0.00 60 1018.9
20260903050526 69 18 1.7 4.3 0.00 0.00 0.00 60 1018.8
20260903050005 69 18 1.7 6.1 0.00 0.00 0.00 60 1018.8
20260903045505 69 14 3.5 6.1 0.00 0.00 0.00 60 1018.7
20260903045005 69 11 3.5 6.1 0.00 0.00 0.00 60 1018.6
20260903044505 69 7 0.9 4.3 0.00 0.00 0.00 60 1018.5
20260903044005 69 360 0.0 1.7 0.00 0.00 0.00 60 1018.5
20260903043505 69 14 1.7 4.3 0.00 0.00 0.00 61 1018.4
20260903043005 69 12 4.3 5.2 0.00 0.00 0.00 61 1018.3
20260903042526 69 9 4.3 5.2 0.00 0.00 0.00 61 1018.5
20260903042005 69 6 2.6 4.3 0.00 0.00 0.00 61 1018.4
20260903041505 70 8 0.9 2.6 0.00 0.00 0.00 60 1018.3
20260903041005 70 22 0.0 1.7 0.00 0.00 0.00 60 1018.4
20260903040526 70 0 0.0 0.0 0.00 0.00 0.00 60 1018.1
20260903040008 70 0 0.0 0.0 0.00 0.00 0.00 60 1018.3
20260903035505 70 0 0.0 0.0 0.00 0.00 0.00 60 1018.1
20260903035026 69 0 0.0 0.0 0.00 0.00 0.00 60 1018.1
20260903034505 70 0 0.0 0.0 0.00 0.00 0.00 60 1018.1
20260903034005 70 0 0.0 0.0 0.00 0.00 0.00 60 1017.9
20260903033505 70 0 0.0 0.0 0.00 0.00 0.00 59 1017.9
20260903033005 71 16 0.0 3.5 0.00 0.00 0.00 58 1018.0
20260903032526 71 16 0.0 3.5 0.00 0.00 0.00 57 1018.1
20260903032005 72 7 1.7 7.0 0.00 0.00 0.00 57 1017.9
20260903031505 72 18 4.3 7.0 0.00 0.00 0.00 56 1017.7
20260903031005 72 23 6.1 9.6 0.00 0.00 0.00 56 1017.8
20260903030505 72 16 7.8 9.6 0.00 0.00 0.00 56 1017.7
20260903030005 72 10 7.0 7.8 0.00 0.00 0.00 56 1017.8
20260903025505 72 14 6.1 7.0 0.00 0.00 0.00 56 1017.7
20260903025026 72 17 5.2 7.0 0.00 0.00 0.00 57 1017.9
20260903024505 72 23 5.2 7.0 0.00 0.00 0.00 58 1017.8
20260903024005 72 35 4.3 7.0 0.00 0.00 0.00 59 1017.9
20260903023505 72 30 6.1 8.7 0.00 0.00 0.00 55 1017.9
20260903023005 72 38 7.0 9.6 0.00 0.00 0.00 55 1017.9
20260903022505 72 39 7.8 10.4 0.00 0.00 0.00 55 1017.7
20260903022005 72 22 7.8 10.4 0.00 0.00 0.00 56 1017.9
20260903021505 72 18 6.1 8.7 0.00 0.00 0.00 60 1017.9
20260903021004 72 25 7.0 8.7 0.00 0.00 0.00 61 1017.9
20260903020526 71 19 7.0 8.7 0.00 0.00 0.00 63 1017.9
20260903020005 71 6 3.5 6.1 0.00 0.00 0.00 63 1017.8
20260903015505 70 360 3.5 5.2 0.00 0.00 0.00 65 1017.8
20260903015026 70 4 3.5 5.2 0.00 0.00 0.00 65 1017.8
20260903014505 70 5 2.6 3.5 0.00 0.00 0.00 65 1017.9
20260903014026 70 4 2.6 3.5 0.00 0.00 0.00 65 1017.9
20260903013505 70 9 2.6 3.5 0.00 0.00 0.00 65 1017.9
20260903013005 70 357 2.6 3.5 0.00 0.00 0.00 64 1017.8
20260903012505 71 348 3.5 5.2 0.00 0.00 0.00 64 1017.7
20260903012005 71 355 2.6 5.2 0.00 0.00 0.00 63 1017.8
20260903011505 72 13 2.6 6.1 0.00 0.00 0.00 63 1017.9
20260903011005 72 21 4.3 6.1 0.00 0.00 0.00 63 1017.9
20260903010505 72 31 5.2 6.1 0.00 0.00 0.00 63 1017.8
20260903010026 72 26 4.3 6.1 0.00 0.00 0.00 63 1017.8
20260903005504 72 9 4.3 5.2 0.00 0.00 0.00 63 1017.8
20260903005005 72 19 6.1 7.0 0.00 0.00 0.00 63 1017.9
20260903004526 72 27 4.3 7.0 0.00 0.00 0.00 63 1017.9
20260903004005 72 26 4.3 7.0 0.00 0.00 0.00 63 1017.8
20260903003505 72 22 4.3 6.1 0.00 0.00 0.00 64 1017.8
20260903003026 72 33 3.5 6.1 0.00 0.00 0.00 64 1017.8
20260903002505 72 27 4.3 6.1 0.00 0.00 0.00 64 1017.7
20260903002005 72 17 4.3 7.0 0.00 0.00 0.00 64 1017.9
20260903001505 71 7 3.5 7.0 0.00 0.00 0.00 65 1017.8
20260903001026 71 237 2.6 3.5 0.00 0.00 0.00 65 1017.8
20260903000526 71 243 2.6 3.5 0.00 0.00 0.00 66 1017.8
20260903000026 71 5 2.6 3.5 0.00 0.00 0.00 66 1017.7
20260902235505 71 12 2.6 3.5 0.00 0.00 0.00 66 1017.8
20260902235005 71 9 1.7 3.5 0.00 0.00 0.00 65 1017.7
20260902234526 72 7 1.7 3.5 0.00 0.00 0.00 65 1017.8
20260902234005 72 6 1.7 2.6 0.00 0.00 0.00 64 1017.8
20260902233505 72 360 0.9 2.6 0.00 0.00 0.00 64 1017.8
20260902233005 72 360 0.9 2.6 0.00 0.00 0.00 64 1017.8
20260902232505 72 360 0.0 1.7 0.00 0.00 0.00 64 1017.7
20260902232005 72 360 0.9 1.7 0.00 0.00 0.00 64 1017.7
20260902231505 72 353 3.5 6.1 0.00 0.00 0.00 64 1017.7
20260902231003 72 355 2.6 6.1 0.00 0.00 0.00 61 1017.8
20260902230503 72 2 3.5 6.1 0.00 0.00 0.00 61 1017.6
20260902230004 72 8 4.3 6.1 0.00 0.00 0.00 62 1017.6
20260902225524 72 3 4.3 7.0 0.00 0.00 0.00 62 1017.7
20260902225024 72 5 3.5 7.0 0.00 0.00 0.00 62 1017.7
20260902224524 72 2 3.5 5.2 0.00 0.00 0.00 62 1017.7
20260902224003 72 360 3.5 5.2 0.00 0.00 0.00 62 1017.7
20260902223524 73 4 2.6 3.5 0.00 0.00 0.00 61 1017.7
20260902223003 73 7 2.6 3.5 0.00 0.00 0.00 61 1017.7
20260902222503 73 2 3.5 5.2 0.00 0.00 0.00 61 1017.7
20260902222003 73 7 4.3 5.2 0.00 0.00 0.00 61 1017.7
20260902221503 73 22 4.3 6.1 0.00 0.00 0.00 61 1017.8
20260902221003 73 20 3.5 6.1 0.00 0.00 0.00 61 1017.8
20260902220524 73 14 3.5 3.5 0.00 0.00 0.00 61 1017.8
20260902220003 73 359 2.6 6.1 0.00 0.00 0.00 61 1017.5
20260902215503 73 357 3.5 7.0 0.00 0.00 0.00 61 1017.8
20260902215003 73 9 4.3 7.0 0.00 0.00 0.00 61 1017.7
20260902214503 73 19 3.5 7.0 0.00 0.00 0.00 61 1017.6